[[{"header":{"parameterUnit":"m.s-1","parameterCategory":1,"la1":30.2991,"la2":30.254,"lo1":-89.0895,"lo2":-89.0444,"dy":0.0017,"dx":0.0017,"nx":28,"ny":28,"refTime":"2024-06-18T21:00:00:Z","depth":0,"parameterNumber":2,"parameterNumberName":"U-component_of_WINDS"},"data":[0,0,0,0,0,0,0,0,0,0,0,0,0,0,0,0,0,0,0,0,0,0,0,0,0,0,0,0,0,0,0,0,0,0,0,0,0,0,0,0,0,0,0,0,0,0,0,0,0,0,0,0,0,0,0,0,0,0,-10.8263,-10.8263,0,-10.8248,-10.8248,-10.8248,-10.8012,-10.8006,-10.8,-10.7995,-10.7978,-10.7983,-10.7988,0,0,0,0,0,0,0,0,0,0,0,0,0,-10.8087,-10.8091,-10.8263,-10.8263,-10.8262,-10.8248,-10.8248,-10.8248,-10.8013,-10.8006,-10.7999,-10.7992,-10.7976,-10.7982,-10.7989,0,0,0,0,0,0,0,0,0,0,0,0,0,-10.8127,-10.8093,-10.8263,-10.8144,-10.8133,-10.8248,-10.8248,-10.8248,-10.8015,-10.8006,-10.7997,-10.7988,-10.7974,-10.7982,-10.7989,-10.8217,0,0,-10.8013,-10.8016,0,0,0,0,0,0,0,0,-10.8125,-10.8134,-10.8161,-10.8152,-10.814,-10.8123,-10.8179,-10.8237,-10.8017,-10.806,-10.7994,-10.7984,-10.8033,-10.8036,-10.8052,-10.8216,-10.8215,-10.8014,-10.8018,-10.8022,-10.8024,0,0,0,0,0,0,0,-10.8123,-10.8133,-10.8257,-10.8162,-10.8149,-10.8091,-10.8087,-10.8189,-10.8097,-10.8055,-10.8038,-10.804,-10.8026,-10.8046,-10.805,-10.8215,-10.8013,-10.802,-10.8025,-10.8028,-10.8565,-10.8574,0,0,0,0,0,0,-10.8136,-10.8132,-10.8257,-10.8256,-10.811,-10.8101,-10.8097,-10.8137,-10.8095,-10.808,-10.8047,-10.8029,-10.8037,-10.8042,-10.8049,-10.8311,-10.8022,-10.8029,-10.8033,-10.8555,-10.8567,-10.8578,0,0,0,0,0,0,-10.8134,-10.815,-10.8258,-10.819,-10.8199,-10.8114,-10.8162,-10.8142,-10.8161,-10.8089,-10.8072,-10.8085,-10.803,-10.8038,-10.8177,-10.8307,-10.8032,-10.8039,-10.8544,-10.8559,-10.8572,-10.8839,0,0,0,0,0,0,-10.813,-10.815,-10.8236,-10.8193,-10.8204,-10.8387,-10.817,-10.8148,-10.8176,-10.8151,-10.812,-10.8106,-10.8024,-10.8167,-10.8185,-10.8313,-10.8045,-10.8532,-10.8551,-10.8568,-10.8818,-10.8861,-10.8898,0,0,0,0,0,-10.8124,-10.8311,-10.8241,-10.8257,-10.8309,-10.8395,-10.84,-10.8302,-10.8187,-10.8272,-10.8226,-10.8107,-10.8292,-10.8183,-10.8201,-10.8334,-10.8523,-10.8545,-10.8566,-10.8801,-10.8853,-10.8897,0,0,0,0,0,0,-10.8369,-10.8303,-10.8225,-10.8404,-10.8407,-10.8355,-10.8458,-10.8361,-10.8396,-10.8372,-10.8248,-10.8243,-10.8402,-10.8382,-10.8262,-10.8552,-10.8387,-10.8413,-10.8558,-10.8607,-10.8646,-10.8646,-10.8052,0,0,0,0,0,-10.8444,-10.852,-10.8458,-10.8622,-10.8628,-10.8545,-10.8578,-10.8503,-10.8501,-10.85,-10.8464,-10.8467,-10.8525,-10.8566,-10.8615,-10.8816,-10.8805,-10.8917,-10.8957,-10.8989,-10.9012,-10.9117,-10.9165,-10.8649,-10.8649,-10.8648,0,0,-10.8599,-10.8573,-10.8628,-10.8671,-10.8664,-10.8745,-10.8546,-10.864,-10.8699,-10.8514,-10.8642,-10.8618,-10.8612,-10.8783,-10.8857,-10.8772,-10.9154,-10.9017,-10.9044,-10.9049,-10.9144,-10.9193,-10.9237,-10.8663,-10.8661,-10.8658,0,0,-10.8922,-10.8911,-10.9045,-10.9044,-10.9038,-10.8981,-10.9015,-10.8979,-10.8955,-10.9083,-10.8946,-10.9015,-10.9118,-10.9119,-10.9134,-10.9463,-10.9354,-10.9483,-10.9688,-10.9792,-10.9832,-10.9868,-10.9983,-11.0027,-10.9507,-10.9508,-10.9508,0,-10.9114,-10.9231,-10.9127,-10.923,-10.9253,-10.9093,-10.9228,-10.9232,-10.9242,-10.9261,-10.9167,-10.9294,-10.9279,-10.9448,-10.9529,-10.9547,-10.958,-10.9484,-10.9835,-10.987,-10.9901,-11.001,-11.0054,-10.9523,-10.9522,-10.952,-10.9519,0,-10.9468,-10.9552,-10.9662,-10.9677,-10.9713,-10.9832,-10.9746,-10.9795,-10.9718,-10.9673,-10.9805,-10.9783,-10.9825,-10.9861,-10.9786,-11.002,-10.9967,-10.9857,-10.9687,-10.9968,-11.0068,-11.0109,-10.9546,-10.954,-10.9535,-10.9532,0,0,-10.9939,-10.9899,-10.994,-10.9946,-10.9929,-10.9991,-11.0105,-11.0147,-11.0191,-11.0206,-11.0296,-11.0389,-11.0287,-11.0304,-11.0229,-11.0321,-11.0582,-11.0198,-11.0196,-11.0268,-11.0836,-11.0917,-11.0967,-11.0512,-11.0519,-11.0525,-11.0836,0,-11.0249,-11.0439,-11.035,-11.055,-11.0625,-11.0477,-11.0575,-11.0576,-11.0538,-11.0596,-11.0553,-11.062,-11.0482,-11.0491,-11.0575,-11.0532,-11.0693,-11.0509,-11.0593,-11.0597,-11.0595,-11.102,-11.1105,-11.1399,-11.0875,-11.0881,-11.0886,0,-11.0634,-11.0666,-11.0874,-11.0845,-11.0873,-11.0964,-11.0996,-11.1055,-11.1053,-11.1019,-11.1041,-11.0946,-11.1054,-11.089,-11.1038,-11.0914,-11.0944,-11.0929,-11.0938,-11.0939,-11.0756,-11.1029,-11.1491,-11.1534,-11.0947,-11.0942,-11.0938,0,-11.0954,-11.105,-11.1186,-11.1196,-11.1166,-11.1233,-11.1223,-11.1213,-11.1245,-11.1275,-11.1294,-11.1337,-11.1359,-11.1394,-11.1313,-11.1201,-11.1472,-11.1301,-11.1445,-11.1447,-11.1504,-11.1501,-11.1974,-11.1531,-11.153,-11.153,-11.1529,0,-11.1307,-11.1439,-11.1329,-11.1413,-11.1557,-11.1456,-11.1601,-11.1576,-11.1569,-11.1645,-11.152,-11.1594,-11.1484,-11.1548,-11.1486,-11.1617,-11.1629,-11.1604,-11.1585,-11.1613,-11.1616,-11.1627,-11.1603,-11.1541,-11.1539,-11.1536,-11.1534,0,-11.1686,-11.1618,-11.1757,-11.1719,-11.1713,-11.1821,-11.1788,-11.1864,-11.1819,-11.1917,-11.1934,-11.1863,-11.1932,-11.1856,-11.1918,-11.1877,-11.2053,-11.2006,-11.2054,-11.2039,-11.2186,-11.2173,-11.268,-11.2741,-11.2263,-11.2268,-11.2272,0,-11.1913,-11.2012,-11.1986,-11.2029,-11.2027,-11.2098,-11.213,-11.2036,-11.2075,-11.2083,-11.2158,-11.2216,-11.2257,-11.2374,-11.2328,-11.2375,-11.2326,-11.2501,-11.2332,-11.2357,-11.2325,-11.2319,-11.2328,-11.2534,-11.254,-11.2545,-11.2548,0,-11.2324,-11.2286,-11.2338,-11.2381,-11.2424,-11.2452,-11.2471,-11.2513,-11.2415,-11.2465,-11.2534,-11.2567,-11.2632,-11.2692,-11.2727,-11.2716,-11.2617,-11.2603,-11.2638,-11.2665,-11.2688,-11.2675,-11.2144,-11.259,-11.2586,-11.2583,-11.2581,-11.2579,-11.2631,-11.2712,-11.2707,-11.277,-11.2775,-11.2796,-11.2866,-11.2831,-11.2887,-11.2933,-11.2875,-11.296,-11.2958,-11.2995,-11.2997,-11.3063,-11.2988,-11.304,-11.3052,-11.3066,-11.3086,-11.2682,-11.3069,-11.3068,-11.3067,-11.3066,-11.3065,0,-11.3032,-11.3022,-11.3082,-11.3113,-11.3164,-11.3069,-11.3085,-11.3133,-11.321,-11.3218,-11.3262,-11.3342,-11.34,-11.3361,-11.341,-11.347,-11.3425,-11.3486,-11.3478,-11.3477,-11.3152,-11.3115,-11.3521,-11.3521,-11.3521,-11.3521,-11.352,-11.352,-11.3246,-11.3378,-11.3341,-11.3474,-11.3463,-11.3547,-11.3564,-11.3584,-11.3589,-11.3685,-11.3733,-11.3707,-11.3696,-11.3744,-11.3793,-11.378,-11.3802,-11.3879,-11.3849,-11.3545,-11.35,-11.3457,-11.3422,-11.3885,-11.3886,-11.4168,-11.4171,-11.4173]},{"header":{"parameterUnit":"m.s-1","parameterCategory":1,"la1":30.2991,"la2":30.254,"lo1":-89.0895,"lo2":-89.0444,"dy":0.0017,"dx":0.0017,"nx":28,"ny":28,"refTime":"2024-06-18T21:00:00:Z","depth":0,"parameterNumber":3,"parameterNumberName":"V-component_of_WINDS"},"data":[0,0,0,0,0,0,0,0,0,0,0,0,0,0,0,0,0,0,0,0,0,0,0,0,0,0,0,0,0,0,0,0,0,0,0,0,0,0,0,0,0,0,0,0,0,0,0,0,0,0,0,0,0,0,0,0,0,0,0.992,0.9921,0,0.9989,0.999,0.999,1.0076,1.0077,1.0078,1.008,1.0147,1.0148,1.0148,0,0,0,0,0,0,0,0,0,0,0,0,0,0.9862,0.9863,0.992,0.9921,0.9922,0.9989,0.999,0.9991,1.0076,1.0077,1.0079,1.008,1.0147,1.0148,1.0148,0,0,0,0,0,0,0,0,0,0,0,0,0,0.9904,0.9863,0.992,0.9972,0.9978,0.9989,0.999,0.9991,1.0075,1.0077,1.0079,1.0081,1.0147,1.0148,1.0148,1.0113,0,0,1.0151,1.0151,0,0,0,0,0,0,0,0,0.9902,0.9906,0.9964,0.9969,0.9975,1.0026,0.9994,1.0032,1.0075,1.0038,1.008,1.0082,1.0105,1.0109,1.0118,1.0116,1.0119,1.0151,1.0151,1.0152,1.0152,0,0,0,0,0,0,0,0.9899,0.9904,0.9947,0.9965,0.9971,0.9992,1.0001,1.0002,1.0059,1.0041,1.0048,1.0055,1.0108,1.0117,1.012,1.012,1.0151,1.0152,1.0152,1.0152,1.0094,1.0092,0,0,0,0,0,0,0.9888,0.9901,0.9945,0.9949,0.9943,0.9992,1.0001,1.0007,1.0059,1.0069,1.0053,1.0059,1.0114,1.0119,1.0123,1.0085,1.0152,1.0153,1.0153,1.0096,1.0093,1.0091,0,0,0,0,0,0,0.9887,0.9891,0.9942,0.9927,0.9935,0.9991,0.9997,1.0008,1.0016,1.0068,1.0079,1.0051,1.0116,1.0122,1.0115,1.0088,1.0153,1.0154,1.0098,1.0095,1.0092,1.0008,0,0,0,0,0,0,0.9885,0.989,0.9877,0.9926,0.9936,0.9933,0.9995,1.0008,1.0018,1.0025,1.0069,1.0078,1.0118,1.0113,1.0116,1.0091,1.0154,1.0101,1.0097,1.0093,1.0013,1.0002,0.9993,0,0,0,0,0,0.9882,0.985,0.9876,0.9881,0.992,0.9932,0.9937,0.9984,1.0015,1.0002,1.0036,1.0077,1.0091,1.0112,1.0116,1.009,1.0103,1.0098,1.0093,1.0018,1.0005,0.9993,0,0,0,0,0,0,0.9794,0.9857,0.9887,0.9869,0.9895,0.9946,0.9931,0.9969,0.9985,0.9992,1.0049,1.0058,1.0045,1.0067,1.0089,1.0059,1.0103,1.0099,1.0045,1.0032,1.0022,1.0017,1.0155,0,0,0,0,0,0.9773,0.9778,0.9832,0.9812,0.9823,0.9875,0.9881,0.9916,0.9944,0.9955,0.9989,1.0014,1.0025,1.003,1.0042,1.0018,1.0029,1.0002,0.9992,0.9984,0.9979,0.9969,0.9957,1.0076,1.0076,1.0076,0,0,0.9729,0.9764,0.9763,0.9795,0.9819,0.9822,0.9883,0.9883,0.9886,0.9955,0.9951,0.9977,1.0009,0.9994,0.9989,1.0012,0.9949,0.9978,0.9971,0.997,0.9963,0.9951,0.9941,1.0073,1.0073,1.0074,0,0,0.965,0.9677,0.9663,0.9687,0.9723,0.9758,0.9755,0.9801,0.9821,0.9819,0.9871,0.9875,0.9892,0.9913,0.9926,0.9858,0.9896,0.9861,0.9807,0.9796,0.9787,0.9779,0.9754,0.9745,0.9856,0.9856,0.9856,0,0.959,0.9598,0.9651,0.9649,0.9662,0.9726,0.9713,0.9733,0.977,0.9777,0.9804,0.9827,0.9853,0.9844,0.9828,0.9836,0.9834,0.9855,0.9784,0.9776,0.977,0.9747,0.9738,0.9851,0.9852,0.9852,0.9853,0,0.9523,0.9527,0.9512,0.9548,0.9559,0.9551,0.9604,0.9609,0.9643,0.9676,0.9673,0.9707,0.9728,0.9729,0.9762,0.9725,0.9739,0.9773,0.9818,0.9753,0.9733,0.9724,0.9845,0.9846,0.9848,0.9849,0,0,0.9387,0.9456,0.9449,0.9467,0.9513,0.9517,0.9513,0.9535,0.9538,0.9563,0.956,0.9574,0.9608,0.9622,0.9659,0.9649,0.9594,0.9686,0.9688,0.9667,0.9556,0.9528,0.9517,0.962,0.9619,0.9618,0.9553,0,0.9317,0.9313,0.9362,0.9345,0.9351,0.9413,0.941,0.9437,0.9468,0.9477,0.9511,0.952,0.9564,0.9573,0.9567,0.9602,0.9572,0.9607,0.9618,0.9618,0.9607,0.9507,0.9478,0.9415,0.9545,0.9544,0.9543,0,0.9232,0.9254,0.9238,0.9286,0.929,0.9286,0.9311,0.9319,0.9352,0.9375,0.9393,0.9435,0.9434,0.9479,0.9479,0.9501,0.9509,0.9527,0.9526,0.9528,0.9575,0.9505,0.9396,0.9386,0.9531,0.9532,0.9533,0,0.9135,0.916,0.9154,0.9168,0.9224,0.922,0.9243,0.9278,0.9289,0.9311,0.9318,0.9339,0.9351,0.9366,0.9413,0.9441,0.9408,0.9456,0.9427,0.9425,0.9415,0.9415,0.9304,0.9422,0.9422,0.9422,0.9422,0,0.905,0.9038,0.9112,0.9108,0.9096,0.9153,0.914,0.9169,0.9201,0.9204,0.9259,0.9261,0.9324,0.9332,0.9369,0.9364,0.9368,0.9387,0.9396,0.9381,0.9379,0.9386,0.9391,0.942,0.942,0.9421,0.9421,0,0.8939,0.8988,0.8986,0.904,0.9053,0.9042,0.9089,0.9087,0.9123,0.9126,0.913,0.9185,0.9199,0.9248,0.9272,0.9298,0.928,0.9299,0.9268,0.9275,0.9243,0.9245,0.9132,0.912,0.9245,0.9244,0.9243,0,0.8881,0.8873,0.8927,0.8934,0.8955,0.8964,0.8976,0.9033,0.9043,0.9081,0.9075,0.9093,0.9111,0.9129,0.9171,0.9191,0.9211,0.917,0.9214,0.9199,0.9209,0.9209,0.9208,0.916,0.9158,0.9157,0.9156,0,0.8772,0.8798,0.8813,0.8837,0.885,0.8871,0.8896,0.8898,0.8961,0.897,0.8985,0.8998,0.9025,0.9042,0.9069,0.9093,0.9134,0.9142,0.9136,0.912,0.9102,0.9111,0.9242,0.9144,0.9145,0.9146,0.9146,0.9147,0.8686,0.8682,0.872,0.8736,0.8761,0.8783,0.8785,0.8822,0.8835,0.8862,0.8895,0.8906,0.8941,0.8982,0.9002,0.9012,0.9035,0.9026,0.9024,0.9021,0.9013,0.9102,0.9017,0.9017,0.9018,0.9018,0.9018,0,0.858,0.8608,0.8622,0.8656,0.8668,0.8708,0.8738,0.8746,0.8755,0.8785,0.8801,0.8819,0.8836,0.8881,0.8903,0.8902,0.8921,0.8905,0.8905,0.891,0.8992,0.8994,0.8889,0.8889,0.8889,0.8889,0.8889,0.8889,0.8527,0.8523,0.8553,0.8563,0.8591,0.8603,0.8617,0.8638,0.8662,0.8679,0.8695,0.8724,0.876,0.8785,0.8803,0.8816,0.8821,0.8799,0.8817,0.8892,0.8904,0.8916,0.8919,0.8799,0.8799,0.8735,0.8734,0.8734]}]]